This demonstration page uses our WeatherBlox Daily Observations layout. Learn more.

Left ArrowRight Arrow

36.19886, -115.1175

Hourly Observations for September 10, 2021

Temp ( °F °C ) Dew Point ( °F °C ) Humidity (%) Winds ( mph kmh ) Pressure ( in mb ) Visibility ( mi km ) Precip ( " mm )
12:53 am 00:53 Clear 89 31.7 52 11.1 28 28 NW 7 11 29.85 1011 10 16 0.00 0.00
1:53 am 01:53 Clear 89 31.7 51 10.6 27 27 NNW 7 11 29.85 1011 10 16 0.00 0.00
2:53 am 02:53 Clear 89 31.7 51 10.6 27 27 NW 8 13 29.85 1011 10 16 0.00 0.00
3:53 am 03:53 Clear 86 30 51 10.6 30 30 NNW 5 7 29.86 1011 10 16 0.00 0.00
4:53 am 04:53 Clear 85 29.4 52 11.1 32 32 W 5 7 29.87 1012 10 16 0.00 0.00
5:53 am 05:53 Mostly Clear 85 29.4 52 11.1 32 32 W 5 7 29.89 1012 10 16 0.00 0.00
6:53 am 06:53 Sunny 83 28.3 52 11.1 34 34 NW 3 6 29.90 1013 10 16 0.00 0.00
7:53 am 07:53 Sunny 87 30.6 52 11.1 30 30 Calm 29.92 1013 10 16 0.00 0.00
8:53 am 08:53 Sunny 91 32.8 52 11.1 26 26 Calm 29.93 1014 10 16 0.00 0.00
9:53 am 09:53 Sunny 94 34.4 51 10.6 23 23 ESE 5 7 29.93 1014 10 16 0.00 0.00
10:53 am 10:53 Sunny 97 36.1 51 10.6 21 21 undefined N/A 29.92 1013 10 16 0.00 0.00
11:53 am 11:53 Sunny 100 37.8 52 11.1 20 20 ESE 6 9 29.89 1012 10 16 0.00 0.00
12:53 pm 12:53 Sunny with Nearby Thunderstorms 101 38.3 51 10.6 19 19 SSE 16 26 29.87 1012 10 16 0.00 0.00
1:00 pm 13:00 Partly Cloudy with Thunderstorms 99 37.2 54 12.2 22 22 SW 17 28 29.73 1007 10 16 0.00 0.00
1:35 pm 13:35 Mostly Cloudy with Nearby Thunderstorms 92 33.3 62 16.7 37 37 ENE 7 11 29.74 1007 8 13 0.09 2.29
1:44 pm 13:44 Mostly Cloudy with Light Rain 93 33.9 65 18.3 40 40 SE 9 15 29.75 1007 10 16 0.09 2.29
1:53 pm 13:53 Mostly Cloudy with Light Rain 91 32.8 63 17.2 39 39 SSE 8 13 29.88 1012 8 13 0.10 2.54
2:00 pm 14:00 Mostly Cloudy with Thunderstorms 94 34.4 63 17.2 36 36 ESE 9 15 29.73 1007 10 16 0.00 0.00
2:24 pm 14:24 Windy with Storms Likely 91 32.8 62 16.7 38 38 SE 26 43 29.73 1007 10 16 0.01 0.25
2:49 pm 14:49 Sunny with Nearby Thunderstorms 91 33 61 16 36 36 ESE 20 31 29.74 1007 10 16 0.01 0.25
2:53 pm 14:53 Sunny 92 33.3 60 15.6 34 34 ESE 18 30 29.87 1011 10 16 0.01 0.25
3:53 pm 15:53 Sunny 97 36.1 57 13.9 26 26 Calm 29.85 1011 10 16 0.00 0.00
4:53 pm 16:53 Sunny 99 37.2 52 11.1 21 21 ENE 5 7 29.82 1010 10 16 0.00 0.00
5:53 pm 17:53 Mostly Sunny 95 35 58 14.4 29 29 E 8 13 29.83 1010 10 16 0.00 0.00
6:53 pm 18:53 Sunny 94 34.4 56 13.3 28 28 WNW 5 7 29.83 1010 10 16 0.00 0.00
7:53 pm 19:53 Clear 94 34.4 55 12.8 27 27 W 3 6 29.85 1011 10 16 0.00 0.00
8:53 pm 20:53 Clear 90 32.2 58 14.4 34 34 ESE 3 6 29.87 1012 10 16 0.00 0.00
9:53 pm 21:53 Clear 92 33.3 54 12.2 28 28 S 6 9 29.87 1012 10 16 0.00 0.00
10:53 pm 22:53 Clear 89 31.7 56 13.3 33 33 SSW 6 9 29.87 1012 10 16 0.00 0.00
11:53 pm 23:53 Clear 90 32.2 52 11.1 27 27 SSW 8 13 29.88 1012 10 16 0.00 0.00

Powered by AerisWeather